TimeMST,TemperatureF,Dew PointF,Humidity,Sea Level PressureIn,VisibilityMPH,Wind Direction,Wind SpeedMPH,Gust SpeedMPH,PrecipitationIn,Events,Conditions,WindDirDegrees,DateUTC
12:08 AM,42.8,10.4,27,29.72,10.0,WNW,17.3,32.2,N/A,,Clear,290,2011-11-14 07:08:00
12:28 AM,42.8,10.4,27,29.72,10.0,WNW,21.9,38.0,N/A,,Clear,290,2011-11-14 07:28:00
12:48 AM,42.8,10.4,27,29.72,10.0,WNW,23.0,27.6,N/A,,Clear,290,2011-11-14 07:48:00
1:08 AM,42.8,10.4,27,29.72,10.0,West,27.6,38.0,N/A,,Clear,280,2011-11-14 08:08:00
1:28 AM,42.8,10.4,27,29.72,10.0,West,24.2,35.7,N/A,,Clear,280,2011-11-14 08:28:00
1:48 AM,42.8,10.4,27,29.73,10.0,West,21.9,29.9,N/A,,Clear,270,2011-11-14 08:48:00
2:08 AM,42.8,10.4,27,29.72,10.0,West,29.9,36.8,N/A,,Clear,270,2011-11-14 09:08:00
2:28 AM,42.8,10.4,27,29.73,10.0,West,27.6,36.8,N/A,,Clear,270,2011-11-14 09:28:00
2:47 AM,42.8,8.6,25,29.74,10.0,West,19.6,33.4,N/A,,Clear,270,2011-11-14 09:47:00
3:08 AM,42.8,8.6,25,29.75,10.0,West,26.5,33.4,N/A,,Clear,270,2011-11-14 10:08:00
3:28 AM,42.8,8.6,25,29.75,10.0,WNW,19.6,35.7,N/A,,Clear,290,2011-11-14 10:28:00
3:48 AM,42.8,8.6,25,29.75,10.0,WNW,24.2,32.2,N/A,,Clear,290,2011-11-14 10:48:00
4:08 AM,42.8,8.6,25,29.75,10.0,West,21.9,31.1,N/A,,Clear,280,2011-11-14 11:08:00
4:28 AM,42.8,6.8,23,29.76,10.0,West,17.3,21.9,N/A,,Clear,280,2011-11-14 11:28:00
4:48 AM,41.0,8.6,26,29.75,10.0,NW,15.0,-,N/A,,Clear,310,2011-11-14 11:48:00
5:52 AM,39.2,8.6,28,29.73,40.0,SW,6.9,-,N/A,,Scattered Clouds,230,2011-11-14 12:52:00
6:46 AM,41.0,6.8,24,29.72,50.0,WNW,18.4,-,N/A,,Scattered Clouds,290,2011-11-14 13:46:00
7:45 AM,42.8,1.4,18,29.74,50.0,West,23.0,28.8,N/A,,Scattered Clouds,280,2011-11-14 14:45:00
8:49 AM,48.2,-2.2,12,29.77,50.0,West,15.0,23.0,N/A,,Partly Cloudy,280,2011-11-14 15:49:00
9:50 AM,51.8,-2.2,11,29.77,50.0,WSW,20.7,31.1,N/A,,Scattered Clouds,250,2011-11-14 16:50:00
10:50 AM,53.6,-4.0,9,29.76,50.0,WSW,19.6,35.7,N/A,,Scattered Clouds,250,2011-11-14 17:50:00
11:47 AM,53.6,-5.8,9,29.73,50.0,West,25.3,40.3,N/A,,Scattered Clouds,260,2011-11-14 18:47:00
12:45 PM,55.4,-5.8,8,29.69,50.0,SW,19.6,32.2,N/A,,Scattered Clouds,230,2011-11-14 19:45:00
12:51 PM,33.8,14.0,44,29.62,10.0,WSW,26.5,35.7,N/A,,Scattered Clouds,240,2011-11-14 19:51:00
1:49 PM,55.4,-5.8,8,29.67,60.0,WSW,17.3,25.3,N/A,,Scattered Clouds,250,2011-11-14 20:49:00
2:45 PM,55.4,-2.2,9,29.66,50.0,West,16.1,32.2,N/A,,Scattered Clouds,270,2011-11-14 21:45:00
3:45 PM,51.8,1.4,13,29.68,50.0,SW,8.1,-,N/A,,Mostly Cloudy,230,2011-11-14 22:45:00
4:48 PM,48.2,5.0,17,29.68,40.0,WSW,10.4,23.0,N/A,,Partly Cloudy,240,2011-11-14 23:48:00
5:48 PM,46.4,6.8,20,29.68,20.0,WNW,5.8,-,N/A,,Partly Cloudy,300,2011-11-15 00:48:00
6:05 PM,48.2,5.0,17,29.69,20.0,West,12.7,-,N/A,,Partly Cloudy,280,2011-11-15 01:05:00
6:46 PM,46.4,3.2,17,29.69,20.0,SW,6.9,-,N/A,,Partly Cloudy,220,2011-11-15 01:46:00
7:48 PM,48.2,3.2,16,29.70,20.0,West,18.4,31.1,N/A,,Partly Cloudy,260,2011-11-15 02:48:00
8:48 PM,48.2,5.0,17,29.71,20.0,West,20.7,27.6,N/A,,Partly Cloudy,270,2011-11-15 03:48:00
9:48 PM,46.4,3.2,17,29.74,20.0,West,16.1,23.0,N/A,,Partly Cloudy,270,2011-11-15 04:48:00
10:08 PM,46.4,6.8,20,29.74,10.0,West,9.2,25.3,N/A,,Clear,280,2011-11-15 05:08:00
10:28 PM,46.4,8.6,22,29.74,10.0,West,13.8,24.2,N/A,,Clear,280,2011-11-15 05:28:00
10:48 PM,48.2,6.8,19,29.74,10.0,West,16.1,26.5,N/A,,Clear,280,2011-11-15 05:48:00
11:08 PM,46.4,8.6,22,29.74,10.0,West,16.1,23.0,N/A,,Clear,260,2011-11-15 06:08:00
11:28 PM,44.6,8.6,23,29.74,10.0,WNW,12.7,-,N/A,,Clear,290,2011-11-15 06:28:00
11:47 PM,48.2,5.0,17,29.74,10.0,WSW,8.1,38.0,N/A,,Clear,240,2011-11-15 06:47:00